www.pogodaiklimat.ru

Погода и климат >> Архив погоды >> Франция >> Лёкат


ПОГОДА в Лёкате

  • Прогноз погоды в Лёкате
  • Монитор погоды в Лёкате

АРХИВ ПОГОДЫ в Лёкате

Время (UTC), дата Ветер
(напр.,м/с)
 
Видим.   Явления Облачность Т
(С)
Тd
(С)
f
(%)
Тe
(С)
Тes
(С)
Комфортность P
(гПа)
Po
(гПа)
Тmin
(С)
Tmax
(С)
R
(мм)
R24
(мм)
S
(см)
19 18.08 В 3-4
{5}
н/о {дождь} н/о +22.5 +21.5 94 +30 +30 очень
душно
1012.8 1008.2 0.0
20 18.08 В 3-3
{5}
н/о н/о +22.4 +21.4 94 +29 +29 очень
душно
1013.5 1008.9
21 18.08 В 2-3
{4}
н/о н/о +22.4 +21.4 94 +29 +29 очень
душно
1014.4 1009.8 0.0
22 18.08 С 1-2
{2}
н/о н/о +22.3 +21.3 94 +29 +29 очень
душно
1014.8 1010.2
23 18.08 С 1-2
{3}
н/о н/о +22.4 +21.4 94 +29 +29 очень
душно
1015.1 1010.5
00 19.08 С 1-1
{2}
н/о н/о +22.4 +21.2 93 +29 +29 очень
душно
1015.3 1010.7
01 19.08 С 2-2
{2}
н/о н/о +22.3 +21.3 94 +29 +29 очень
душно
1015.0 1010.4
02 19.08 СЗ 2-4
{5}
н/о н/о +20.7 +18.6 88 +25 +25 комфорт 1015.2 1010.5
03 19.08 СЗ 4
{14}
15 км 10/10 600 м
[St Ac As]
+21.6 +15.7 69 +25 +25 комфорт 1014.9 1010.2
04 19.08 СЗ 5-9
{9}
н/о н/о +20.8 +12.7 60 +23 +23 комфорт 1014.9 1010.2
05 19.08 СЗ 5-9
{9}
н/о н/о +20.4 +12.9 62 +23 +23 комфорт 1015.4 1010.7
06 19.08 СЗ 4-14
{18}
25 км 8/8 700 м
[Sc Ac As]
+20.8 +13.0 61 +23 +23 комфорт 1016.1 1011.4 +20.3 +22.6
07 19.08 СЗ 5-7
{8}
н/о н/о +22.0 +13.6 59 +25 +25 комфорт 1016.5 1011.8
08 19.08 СЗ 4-7
{9}
н/о н/о +22.2 +13.5 58 +25 +25 комфорт 1016.3 1011.6
09 19.08 СЗ 4
{17}
25 км 8/8 700 м
[Sc Ac As]
+23.0 +14.0 57 +26 +28 жарко 1016.6 1012.0
10 19.08 СЗ 4-7
{8}
н/о н/о +23.4 +14.1 56 +27 +27 душно 1017.1 1012.5
11 19.08 СЗ 4-6
{7}
н/о н/о +24.0 +13.8 53 +26 +26 жарко 1017.2 1012.6
12 19.08 СЗ 4
{14}
25 км 10/10 700 м
[Sc Ac As]
+23.8 +13.3 52 +26 +26 жарко 1017.5 1012.9
13 19.08 СЗ 4-6
{7}
н/о н/о +24.1 +13.3 51 +26 +26 жарко 1017.6 1013.0
14 19.08 СЗ 3-6
{7}
н/о н/о +24.4 +13.0 49 +26 +26 жарко 1017.2 1012.6
15 19.08 СЗ 4
{13}
30 км 9/6 1000 м
[Sc Ac As]
+24.0 +12.6 49 +26 +27 жарко 1017.3 1012.7
16 19.08 СЗ 3-6
{6}
н/о н/о +24.3 +10.9 43 +26 +26 жарко 1017.2 1012.6
17 19.08 СЗ 3-6
{6}
н/о н/о +24.4 +10.7 42 +26 +26 жарко 1017.1 1012.5
18 19.08 СЗ 3
{12}
30 км 9/3 1000 м
[Cu med, cong Ac As]
+23.9 +10.6 43 +25 +25 комфорт 1017.4 1012.8 +20.8 +24.9
19 19.08 СЗ 3-7
{7}
н/о н/о +23.0 +10.8 46 +25 +25 комфорт 1017.5 1012.8
20 19.08 СЗ 4-6
{7}
н/о н/о +22.6 +10.4 46 +24 +24 комфорт 1018.2 1013.5
21 19.08 СЗ 3-6
{7}
н/о н/о +22.5 +10.3 46 +24 +24 комфорт 1018.2 1013.5
22 19.08 СЗ 4-7
{7}
н/о н/о +22.3 +10.8 48 +24 +24 комфорт 1018.1 1013.4
23 19.08 СЗ 4-7
{7}
н/о н/о +21.8 +11.2 51 +24 +24 комфорт 1018.3 1013.6
00 20.08 СЗ 4-6
{7}
н/о н/о +21.2 +11.5 54 +23 +23 комфорт 1018.1 1013.4
01 20.08 СЗ 3-5
{7}
н/о н/о +19.9 +12.2 61 +22 +22 комфорт 1018.0 1013.3
02 20.08 СЗ 2-4
{4}
н/о н/о +19.7 +12.2 62 +22 +22 комфорт 1017.9 1013.2
03 20.08 СЗ 3-5
{6}
30 км 10/3 1500 м
[Sc Ac As]
+19.4 +12.4 64 +21 +21 комфорт 1017.4 1012.7
04 20.08 СЗ 3-5
{6}
н/о н/о +19.4 +12.2 63 +21 +21 комфорт 1017.3 1012.6
05 20.08 СЗ 4-7
{7}
н/о н/о +19.2 +12.5 65 +20 +20 1018.1 1013.4
06 20.08 СЗ 5-15
{16}
30 км 9/4 1500 м
[Sc diur, vesp Ac trans]
+19.3 +12.8 66 +20 +21 1018.4 1013.7 +19.2 +23.8
07 20.08 СЗ 4-8
{9}
н/о н/о +19.3 +13.0 67 +21 +21 комфорт 1019.0 1014.3
08 20.08 СЗ 5-9
{9}
н/о н/о +20.1 +13.3 65 +22 +22 комфорт 1019.1 1014.4
09 20.08 СЗ 4-15
{15}
30 км 9/4 1500 м
[Sc diur, vesp Ac trans]
+22.0 +13.1 57 +25 +27 комфорт 1019.5 1014.8
10 20.08 СЗ 5-9
{9}
н/о н/о +21.6 +13.0 58 +24 +24 комфорт 1020.3 1015.6
11 20.08 СЗ 5-9
{10}
н/о н/о +21.5 +13.4 60 +24 +24 комфорт 1020.9 1016.2
12 20.08 СЗ 4-17
{17}
30 км 9/4 1500 м
[Sc diur, vesp Ac trans]
+19.9 +13.6 67 +22 +25 комфорт 1021.2 1016.5
13 20.08 СЗ 4-7
{8}
н/о {дождь} н/о +19.1 +14.1 73 +20 +20 1021.1 1016.4 0.0
14 20.08 СЗ 4-9
{9}
н/о н/о +19.5 +14.1 71 +21 +21 комфорт 1021.3 1016.6 0.0
15 20.08 СЗ 8-15
{15}
30 км {дождь} 8/3 1000 м
[Cu med, cong Ac As]
+22.0 +13.9 60 +25 +26 комфорт 1021.1 1016.4 0.0
16 20.08 СЗ 7-7
{16}
н/о н/о +23.7 +13.0 51 +26 +26 жарко 1021.3 1016.6
17 20.08 СЗ 7-7
{13}
н/о н/о +23.5 +12.8 51 +26 +26 жарко 1021.3 1016.6
18 20.08 СЗ 4
{13}
30 км {дождь} 4/1 800 м
[Sc diur, vesp Ac As]
+22.2 +13.0 56 +25 +25 комфорт 1021.6 1016.9 +18.9 +23.9
19 20.08 СЗ 3-6
{7}
н/о н/о +20.6 +12.8 61 +23 +23 комфорт 1022.1 1017.4
20 20.08 СЗ 3-6
{7}
н/о н/о +19.8 +12.8 64 +22 +22 комфорт 1022.5 1017.8
21 20.08 СЗ 3-5
{6}
н/о н/о +19.7 +12.5 63 +21 +21 комфорт 1022.6 1017.9
22 20.08 СЗ 3-5
{6}
н/о н/о +19.7 +12.2 62 +21 +21 комфорт 1022.6 1017.9
23 20.08 СЗ 3-5
{5}
н/о н/о +19.5 +12.5 64 +21 +21 комфорт 1022.3 1017.6
00 21.08 СЗ 3-5
{5}
н/о н/о +19.0 +12.5 66 +20 +20 1021.8 1017.1
01 21.08 СЗ 4-6
{7}
н/о н/о +19.4 +12.4 64 +21 +21 комфорт 1021.5 1016.8
02 21.08 СЗ 3-5
{6}
н/о н/о +19.3 +11.6 61 +21 +21 комфорт 1021.0 1016.3
03 21.08 СЗ 3-5
{6}
30 км 1/0
[Ci sp]
+19.3 +10.3 56 +20 +20 1020.7 1016.0
04 21.08 СЗ 3-5
{5}
н/о н/о +18.7 +10.0 57 +20 +20 1020.4 1015.7
05 21.08 СЗ 3-6
{6}
н/о н/о +18.4 +10.0 58 +19 +19 1020.5 1015.8
06 21.08 СЗ 4
{14}
н/о н/о +20.1 +9.6 51 +22 +22 комфорт 1020.2 1015.5 +18.2 +22.2
07 21.08 СЗ 4-8
{8}
н/о н/о +21.8 +9.7 46 +23 +23 комфорт 1020.0 1015.3
08 21.08 СЗ 4-7
{7}
н/о н/о +23.4 +9.4 41 +25 +25 комфорт 1020.1 1015.4
09 21.08 СЗ 4-7
{7}
30 км 8/0
[Ci sp]
+25.1 +7.7 33 +25 +30 комфорт 1020.1 1015.5
10 21.08 СЗ 3-6
{7}
н/о н/о +26.3 +8.3 32 +26 +26 жарко 1019.7 1015.1
11 21.08 СЗ 4-7
{7}
н/о н/о +27.3 +7.7 29 +27 +27 жарко 1019.3 1014.7
12 21.08 СЗ 3-6
{7}
н/о н/о +28.9 +4.4 21 +27 +27 жарко 1018.7 1014.1
13 21.08 СЗ 3-5
{6}
н/о н/о +29.7 +5.0 21 +28 +28 жарко 1018.4 1013.8
14 21.08 С 3-4
{5}
н/о н/о +30.1 +6.0 22 +29 +29 жарко 1018.0 1013.4
15 21.08 СЗ 3
{11}
30 км 8/3 800 м
[Cu med, cong Ci sp]
+30.3 +2.5 17 +28 +32 жарко 1017.9 1013.3
16 21.08 СЗ 3-6
{6}
н/о н/о +28.0 +5.5 24 +27 +27 жарко 1017.7 1013.1
17 21.08 СЗ 3-6
{6}
н/о н/о +26.9 +7.9 30 +27 +27 жарко 1017.7 1013.1
18 21.08 СЗ 3
{11}
30 км 9/4 800 м
[Cu med, cong Ac As]
+25.8 +8.7 34 +26 +26 жарко 1017.8 1013.2 +20.2 +30.4
19 21.08 СЗ 3-6
{6}
н/о н/о +24.7 +10.6 41 +26 +26 жарко 1018.1 1013.5
20 21.08 СЗ 3-6
{6}
н/о н/о +24.4 +9.9 40 +25 +25 комфорт 1018.6 1014.0
21 21.08 СЗ 3-5
{6}
н/о н/о +24.2 +9.7 40 +25 +25 комфорт 1019.0 1014.4
22 21.08 СЗ 2-4
{5}
н/о н/о +23.9 +9.8 41 +25 +25 комфорт 1019.2 1014.5
23 21.08 СЗ 3-6
{6}
н/о н/о +24.1 +10.0 41 +25 +25 комфорт 1019.2 1014.6
00 22.08 СЗ 3-5
{6}
н/о н/о +23.5 +10.2 43 +25 +25 комфорт 1019.2 1014.5
01 22.08 СЗ 3-6
{6}
н/о н/о +23.2 +9.9 43 +25 +25 комфорт 1018.9 1014.2
02 22.08 СЗ 3-5
{7}
н/о н/о +22.9 +9.3 42 +24 +24 комфорт 1018.7 1014.0
03 22.08 СЗ 3-6
{6}
н/о н/о +22.8 +8.9 41 +24 +24 комфорт 1018.7 1014.0
04 22.08 СЗ 4-6
{7}
н/о н/о +22.6 +8.3 40 +24 +24 комфорт 1018.5 1013.8
05 22.08 СЗ 3-5
{6}
н/о н/о +21.7 +8.6 43 +23 +23 комфорт 1018.9 1014.2
06 22.08 СЗ 2
{9}
22 км 5/3 600 м
[Cu med, cong Ac As Ci fib]
+21.3 +9.2 46 +23 +23 комфорт 1019.5 1014.8 +21.3 +25.7
07 22.08 СЗ 3-5
{5}
н/о н/о +23.5 +9.8 42 +25 +25 комфорт 1019.8 1015.1
08 22.08 СЗ 4-7
{7}
н/о н/о +25.9 +9.3 35 +26 +26 жарко 1019.8 1015.2
09 22.08 СЗ 4
{15}
25 км 4/0 2000 м
[Ac trans Ci sp]
+27.6 +8.9 31 +28 +34 жарко 1019.9 1015.3
10 22.08 СЗ 4-7
{7}
н/о н/о +28.8 +7.9 27 +28 +28 жарко 1020.0 1015.4
11 22.08 СЗ 4-7
{8}
н/о н/о +29.5 +6.8 24 +28 +28 жарко 1019.8 1015.2
12 22.08 СЗ 3-6
{7}
н/о н/о +30.4 +6.9 23 +29 +29 жарко 1019.5 1014.9
13 22.08 СЗ 3-5
{6}
н/о н/о +31.5 +6.5 21 +30 +30 жарко 1019.2 1014.7
14 22.08 СЗ 3-5
{5}
н/о н/о +31.7 +8.0 23 +31 +31 жарко 1018.8 1014.3
15 22.08 СЗ 3
{9}
25 км 1/1 1000 м
[Cu hum Ac trans]
+32.0 +8.3 23 +31 +38 жарко 1018.5 1014.0
16 22.08 СЗ 3-5
{6}
н/о н/о +31.9 +6.9 21 +30 +30 жарко 1018.3 1013.8
17 22.08 СЗ 3-5
{6}
н/о н/о +31.1 +6.9 22 +30 +30 жарко 1018.0 1013.5
18 22.08 СЗ 3
{11}
25 км 1/1 1000 м
[Cu med, cong]
+29.1 +7.1 25 +28 +28 жарко 1018.7 1014.1 +21.2 +32.2
19 22.08 СЗ 3-5
{5}
н/о н/о +27.3 +8.2 30 +27 +27 жарко 1019.2 1014.6
20 22.08 СЗ 3-4
{6}
н/о н/о +26.6 +8.5 32 +27 +27 жарко 1019.5 1014.9
21 22.08 СЗ 3-4
{5}
н/о н/о +26.1 +8.1 32 +26 +26 жарко 1019.7 1015.1
22 22.08 СЗ 2-3
{5}
н/о н/о +25.1 +8.1 34 +25 +25 комфорт 1019.7 1015.1
23 22.08 СЗ 2-3
{4}
н/о н/о +24.3 +8.3 36 +25 +25 комфорт 1019.8 1015.1
00 23.08 СЗ 3-3
{4}
н/о н/о +23.7 +8.5 38 +24 +24 комфорт 1019.7 1015.0
01 23.08 С 2-3
{4}
н/о н/о +22.4 +13.7 58 +26 +26 жарко 1019.9 1015.2
02 23.08 СЗ 1-2
{3}
н/о н/о +21.7 +13.6 60 +24 +24 комфорт 1020.1 1015.4
03 23.08 С 3-3
{6}
н/о н/о +21.6 +12.2 55 +24 +24 комфорт 1019.9 1015.2
04 23.08 СЗ 3-2
{4}
н/о н/о +20.3 +11.5 57 +23 +23 комфорт 1019.8 1015.1
05 23.08 СЗ 1-2
{2}
н/о н/о +21.0 +8.9 46 +24 +24 комфорт 1019.7 1015.0
06 23.08 З 2
{4}
н/о н/о +21.5 +9.7 47 +23 +23 комфорт 1019.7 1015.0 +20.0 +29.0
07 23.08 ЮЗ 1-1
{2}
н/о н/о +24.0 +12.6 49 +26 +26 жарко 1019.8 1015.2
08 23.08 СВ 1-2
{2}
н/о н/о +23.4 +14.7 58 +27 +27 душно 1019.9 1015.2
09 23.08 В 1
{3}
25 км 1/0
[Ac trans Ci fib]
+24.4 +14.5 54 +27 +38 жарко 1019.8 1015.2
10 23.08 ЮВ 1-2
{2}
н/о н/о +24.5 +14.6 54 +27 +27 жарко 1019.5 1014.9
11 23.08 ЮВ 2-2
{2}
н/о н/о +24.7 +16.9 62 +28 +28 душно 1019.4 1014.8
12 23.08 ЮВ 3
{6}
25 км 1/0
[Ac trans Ci fib]
+24.6 +16.3 60 +28 +41 душно 1019.2 1014.6
13 23.08 ЮВ 2-3
{3}
н/о н/о +24.6 +17.3 64 +29 +29 душно 1018.9 1014.3
14 23.08 Ю 2-3
{3}
н/о н/о +25.1 +17.8 64 +29 +29 душно 1018.4 1013.8
15 23.08 Ю 2-3
{3}
25 км 1/1 1000 м
[Sc]
+24.5 +17.5 65 +29 +36 душно 1018.0 1013.4
16 23.08 Ю 3-3
{3}
н/о н/о +24.4 +17.4 65 +28 +28 душно 1017.8 1013.2
17 23.08 Ю 3-4
{4}
н/о н/о +24.8 +15.7 57 +28 +28 жарко 1017.6 1013.0
18 23.08 Ю 2
{7}
25 км 1/1 1000 м
[Sc]
+24.9 +15.5 56 +28 +28 жарко 1017.5 1012.9 +21.6 +25.3
19 23.08 ЮЗ 2-3
{3}
н/о н/о +23.5 +16.5 65 +27 +27 душно 1017.4 1012.8
20 23.08 ЮЗ 2-3
{4}
н/о н/о +23.9 +15.9 61 +27 +27 жарко 1017.4 1012.8
21 23.08 В 1-1
{3}
н/о н/о +23.1 +17.1 69 +28 +28 душно 1017.5 1012.9
22 23.08 С 2-3
{3}
н/о н/о +22.2 +19.7 86 +28 +28 душно 1018.1 1013.4
23 23.08 СВ 1-4
{4}
н/о н/о +21.8 +19.7 88 +27 +27 душно 1018.4 1013.7
00 24.08 С 1-3
{3}
н/о н/о +21.7 +19.8 89 +27 +27 душно 1018.6 1013.9
01 24.08 СВ 2-3
{3}
н/о н/о +21.7 +20.0 90 +27 +27 душно 1018.6 1013.9
02 24.08 СВ 1-3
{3}
н/о н/о +21.6 +20.2 92 +27 +27 душно 1018.7 1014.0
03 24.08 С 2-3
{3}
15 км 4/4 800 м
[St]
+21.3 +20.1 93 +26 +26 душно 1018.6 1013.9
04 24.08 С 3-4
{4}
н/о н/о +20.7 +19.4 92 +26 +26 душно 1018.5 1013.8
05 24.08 С 3-3
{4}
н/о н/о +21.0 +19.8 93 +26 +26 душно 1018.4 1013.7
06 24.08 С 2
{6}
10 км 8/8 600 м
[St]
+20.5 +19.2 92 +25 +25 комфорт 1018.6 1013.9 +20.4 +24.8
07 24.08 С 2-3
{4}
н/о н/о +21.1 +18.8 87 +25 +25 комфорт 1018.8 1014.1
08 24.08 С 2-3
{3}
н/о н/о +22.4 +19.4 83 +28 +28 душно 1019.0 1014.3
09 24.08 С 2-3
{4}
10 км 8/8 600 м
[St]
+22.9 +19.5 81 +29 +31 очень
душно
1019.1 1014.5
10 24.08 СВ 1-2
{3}
н/о н/о +24.0 +20.5 81 +30 +30 очень
душно
1019.0 1014.4
11 24.08 В 2-3
{3}
н/о н/о +24.3 +20.2 78 +30 +30 очень
душно
1018.7 1014.1
12 24.08 В 2-3
{3}
н/о н/о +24.1 +19.8 77 +29 +29 душно 1018.5 1013.9
13 24.08 В 1-2
{3}
н/о н/о +24.4 +19.9 76 +30 +30 очень
душно
1018.3 1013.7
14 24.08 В 1-2
{2}
н/о н/о +24.8 +19.6 73 +30 +30 душно 1018.1 1013.5
15 24.08 В 1-2
{2}
18 км 1/1 800 м
[Cu med, cong]
+24.6 +19.7 74 +30 +38 очень
душно
1017.8 1013.2
16 24.08 В 1-2
{2}
н/о н/о +24.4 +20.3 78 +30 +30 очень
душно
1017.5 1012.9
17 24.08 ЮВ 1-1
{2}
н/о н/о +24.0 +20.1 79 +30 +30 очень
душно
1017.1 1012.5
18 24.08 ЮВ 1
{2}
18 км 1/0 2000 м
[Ac trans]
+23.6 +19.7 79 +29 +29 душно 1016.9 1012.3 +20.4 +25.0
19 24.08 С 1-2
{2}
н/о н/о +22.7 +20.2 86 +29 +29 очень
душно
1016.7 1012.1
20 24.08 С 1-2
{2}
н/о н/о +22.0 +20.1 89 +28 +28 душно 1016.8 1012.1
21 24.08 С 2-2
{2}
н/о н/о +22.0 +20.6 92 +28 +28 душно 1016.7 1012.1
22 24.08 С 2-3
{3}
н/о н/о +21.9 +20.5 92 +28 +28 душно 1017.0 1012.3 0.2
23 24.08 С 2-3
{3}
н/о н/о +21.5 +20.0 91 +27 +27 душно 1017.0 1012.3
00 25.08 С 2-2
{3}
н/о н/о +21.3 +19.6 90 +26 +26 душно 1017.0 1012.3 0.2
01 25.08 СЗ 2-2
{2}
н/о н/о +20.5 +18.8 90 +25 +25 комфорт 1016.8 1012.1
02 25.08 СЗ 1-2
{2}
н/о н/о +20.1 +18.4 90 +24 +24 комфорт 1016.7 1012.0
03 25.08 З 1-2
{2}
18 км ясно +19.4 +17.7 90 +23 +23 комфорт 1016.7 1012.0 0.2
04 25.08 С 2-3
{3}
н/о н/о +19.5 +17.1 86 +22 +22 комфорт 1016.7 1012.0
05 25.08 С 2-3
{3}
н/о н/о +19.8 +17.4 86 +23 +23 комфорт 1016.9 1012.2
06 25.08 С 3
{7}
н/о н/о +20.8 +17.0 79 +25 +25 комфорт 1017.0 1012.3 +18.9 +23.6
07 25.08 С 1-2
{4}
н/о н/о +22.8 +17.3 71 +28 +28 душно 1017.5 1012.9
08 25.08 Ю 1-2
{2}
н/о н/о +24.0 +17.7 68 +28 +28 душно 1017.9 1013.3
09 25.08 ЮВ 1-2
{2}
18 км 1/1 800 м
[Cu med, cong]
+24.2 +17.9 68 +28 +38 душно 1017.9 1013.3
10 25.08 ЮВ 1-2
{2}
н/о н/о +25.1 +19.0 69 +30 +30 душно 1017.7 1013.1
11 25.08 ЮВ 2-2
{2}
н/о н/о +25.4 +19.8 71 +31 +31 очень
душно
1017.3 1012.7
12 25.08 Ю 2-3
{3}
15 км 1/1 800 м
[Cu med, cong]
+24.8 +19.6 73 +30 +45 душно 1017.0 1012.4
13 25.08 ЮВ 2-3
{3}
н/о н/о +24.2 +19.3 74 +29 +29 душно 1016.7 1012.1
14 25.08 Ю 3-4
{4}
н/о н/о +24.9 +19.9 74 +30 +30 душно 1016.4 1011.8
15 25.08 Ю 3-4
{4}
н/о н/о +24.3 +20.4 79 +30 +30 очень
душно
1016.0 1011.4
16 25.08 Ю 3-3
{3}
н/о н/о +23.8 +20.5 82 +30 +30 очень
душно
1015.7 1011.1
17 25.08 Ю 3-3
{4}
н/о н/о +24.0 +19.7 77 +29 +29 душно 1015.4 1010.8
18 25.08 Ю 3 15 км 1/1 800 м
[Cu med, cong]
+24.4 +18.1 68 +29 +29 душно 1015.3 1010.7 +20.9 +25.7

 

Местоположение метеостанции Лёкат (Франция): широта 42.92 долгота 3.07 высота над уровнем моря 50 м.

В архиве по умолчанию представлена погода в Лёкате за последнюю неделю. Архивные данные за месяц целиком и за предыдущие месяцы, начиная с января 2011 года, Вы можете получить, выбрав интересующий диапазон дат из раскрывающегося списка и нажав кнопку "Ввод!".


*Определитесь, кто Вы:
робот инопланетянин человек

Внимание! Время в таблицах - всемирное. Для получения местного времени необходимо прибавить поправку, которая равна 1 ч.

Смотрите также архив погоды в соседних городах и на ближайших метеорологических станциях:

Погода в Перпиньяне (Франция) (27 км)
Погода на Мысе Беар (Франция) (45 км)
Погода в Безье (Франция) (50 км)
Погода в Каркассоне (Франция) (69 км)
Погода в Сете (Франция) (76 км)
Погода в Поркересе (Испания) (95 км)
Погода в Монпелье (Франция) (103 км)
Погода в Риполе (Испания) (108 км)
Погода в Ла-Молине (Испания) (113 км)
Погода в Жероне (Испания) (116 км)

Пояснения к столбцам:

Ветер - указаны скорость ветра в м/с - средняя за 10 мин, порывы в срок и между сроками (в фигурных скобках) и направление, откуда дует ветер: С - северный, СВ - северо-восточный, В - восточный, ЮВ - юго-восточный, Ю - южный, ЮЗ - юго-западный, З - западный, СЗ - северо-западный.
Видимость - горизонтальная дальность видимости в метрах или километрах. При видимости от 1 до 10 км при отсутствии осадков обычно наблюдается дымка, при ухудшении видимости до 1 км и менее - туман. В сухую погоду видимость может ухудшаться дымом, пылью или мглою.
Явления - указаны атмосферные явления, наблюдавшиеся в срок или в последний час перед сроком; фигурными скобками обозначены явления, наблюдавшиеся между сроками (за 1-3 часа до срока); квадратными скобками обозначены град или гололедные отложения с указанием их диаметра в мм.
Облачность - указаны через наклонную черту общая и нижняя облачность в баллах и высота нижней границы облаков в метрах; квадратными скобками обозначены формы облаков: Ci - перистые, Cs - перисто-слоистые, Cc - перисто-кучевые, Ac - высококучевые, As - высокослоистые, Sc - слоисто-кучевые, Ns - слоисто-дождевые, Cu - кучевые, Cb - кучево-дождевые. Подробнее классификацию облаков см. в Атласе облаков (PDF).
T - Температура воздуха - температура, измеренная на высоте 2 м над землей.
Td - Температура точки росы - температура, при понижении до которой содержащийся в воздухе водяной пар достигнет насыщения.
f - Относительная влажность воздуха - влажноcть воздуха, измеренная на высоте 2 м над землей.
Te - Эффективная температура - температура, которую ощущает одетый по сезону человек в тени. Характеристика душности погоды. При расчете учитывается влияние влажности воздуха и скорости ветра на теплоощущения человека.
Tes - Эффективная температура на солнце - температура, которую ощущает человек, с поправкой на солнечный нагрев. Характеристика знойности погоды. Зависит от высоты солнца над горизонтом, облачности и скорости ветра. Ночью, в пасмурную погоду, а также при ветре 12 м/с и более поправка равна нулю.
P - Атмосферное давление - приведенное к уровню моря атмосферное давление.
Po - Атмосферное давление - измеренное на уровне метеостанции атмосферное давление.
Tmin - Минимальная температура - минимум температуры воздуха на высоте 2 м над землей.
Tmax - Максимальная температура - максимум температуры воздуха на высоте 2 м над землей.
R - Количество осадков - Количество выпавших осадков за период времени, мм. При наведении курсора мыши на число - период времени, за который выпало указанное количество осадков.
R24 - Количество осадков - Количество выпавших осадков за 24 часа, мм.
S - Снежный покров - Высота снежного покрова, см. При наведении курсора мыши на число - состояние снежного покрова и степень покрытия местности в баллах.